Tracking 29932 objects as of 4-Dec-2024
HD Live streaming from Space Station
objects crossing your sky now

STARLINK-31334

Track STARLINK-31334 now!
10-day predictions
STARLINK-31334 is classified as:


NORAD ID: 59157
Int'l Code: 2024-044F
Perigee: 493.8 km
Apogee: 496.5 km
Inclination: 43.0 °
Period: 94.4 minutes
Semi major axis: 6866 km
RCS: Unknown
Launch date: March 4, 2024
Source: United States (US)
Launch site: AIR FORCE EASTERN TEST RANGE (AFETR)
Your satellite tracking list
Your tracking list is empty




NASA's NSSDC Master Catalog

Two Line Element Set (TLE):
1 59157U 24044F   24338.86618804  .00003497  00000-0  14340-3 0  9990
2 59157  43.0032 188.2346 0001992 262.5627  97.4998 15.25929052 43108
Source of the keplerian elements: AFSPC